STARLINK-5475 (55661 NORAD) Tracking and Keplerian Element Data

This shows tracking and keplerian element data for the satellite.

Feedback or suggestion? Click here.




ElementValue
Catalog55661
NameSTARLINK-5475
Epoch Orbit130
Epoch Day62.91667824
Epoch Year2023
RAAN110.187
Inclination70.0002
Eccentricity0.0003534
Argument of Perigee275.9884
Mean Anonmoly330.4692
Mean Motion15.7518961
Decay Rate-0.00978889
L11 55661U 23021AK 23062.91667824 -.00978889 00000+0 -72980-2 0 9995
L22 55661 70.0002 110.1870 0003534 275.9884 330.4692 15.75189610 1304



Live tracking and technical data element details for STARLINK-5475 (NORAD 55661). STARLINK-5475 can be tracked NOW for your location showing map with azimuth and elevation plus other details from your city location.







IsCatalogInMostPopularTable: catalog: 55661, numindb: 2
Update: records affected: 1



GetName: 55661 STARLINK-5475

Hit Count: updated at: Wed, 22 Mar 2023 16:38:56 GMT